When you browse on this site, cookies collect data to enhance your experience and personalize the content and advertising you see.
Visit our Privacy Policy to learn more. By continuing to use the site, you agree to this use of cookies and data.
  • en France
  • Liste des pays
  • À 7 jours
  • Température de l'eau
  • Carte satellitaire
  • Carte météo
  • Widgets météo
  • user-avatar
    Se connecter

    Météo par heure à Aykanovka

    Ce jour, 16 Novembre, Vendredi

    Heure Température Précipitation Vent Pression Humidité
    00:00 -5°C° 0 mm 2 m/s 767 mmHg 28%
    01:00 -5°C° 0 mm 2 m/s 767 mmHg 28%
    02:00 -5°C° 0 mm 2 m/s 767 mmHg 28%
    03:00 -4°C° 0 mm 1 m/s 768 mmHg 29%
    04:00 -4°C° 0 mm 1 m/s 768 mmHg 29%
    05:00 -6°C° 0 mm 2 m/s 768 mmHg 28%
    06:00 -6°C° 0 mm 2 m/s 768 mmHg 28%
    07:00 -6°C° 0 mm 2 m/s 768 mmHg 27%
    08:00 -5°C° 0 mm 2 m/s 769 mmHg 27%
    09:00 -5°C° 0 mm 2 m/s 769 mmHg 25%
    10:00 -4°C° 0 mm 2 m/s 769 mmHg 23%
    11:00 -3°C° 0 mm 2 m/s 769 mmHg 21%
    12:00 0°C° 0 mm 1 m/s 769 mmHg 19%
    13:00 0°C° 0 mm 1 m/s 769 mmHg 19%
    14:00 0°C° 0 mm 1 m/s 769 mmHg 20%
    15:00 0°C° 0 mm 1 m/s 769 mmHg 22%
    16:00 0°C° 0 mm 1 m/s 769 mmHg 23%
    17:00 -1°C° 0 mm 1 m/s 769 mmHg 23%
    18:00 -1°C° 0 mm 1 m/s 769 mmHg 24%
    19:00 -1°C° 0 mm 1 m/s 769 mmHg 24%
    20:00 -1°C° 0 mm 1 m/s 769 mmHg 23%
    21:00 -2°C° 0 mm 1 m/s 769 mmHg 23%
    22:00 -2°C° 0 mm 1 m/s 769 mmHg 23%
    23:00 -2°C° 0 mm 1 m/s 768 mmHg 23%

    Demain, 17 Novembre, Samedi

    Heure Température Précipitation Vent Pression Humidité
    00:00 -2°C° 0 mm 1 m/s 768 mmHg 22%
    01:00 -2°C° 0 mm 1 m/s 768 mmHg 22%
    02:00 -2°C° 0 mm 1 m/s 768 mmHg 22%
    03:00 -2°C° 0 mm 1 m/s 768 mmHg 22%
    04:00 -2°C° 0 mm 1 m/s 767 mmHg 22%
    05:00 -2°C° 0 mm 1 m/s 767 mmHg 22%
    06:00 -2°C° 0 mm 1 m/s 767 mmHg 22%
    07:00 -2°C° 0 mm 1 m/s 767 mmHg 22%
    08:00 -2°C° 0 mm 1 m/s 766 mmHg 22%
    09:00 -2°C° 0 mm 1 m/s 766 mmHg 22%
    10:00 -3°C° 0 mm 2 m/s 766 mmHg 20%
    11:00 -2°C° 0 mm 2 m/s 765 mmHg 19%
    12:00 -1°C° 0 mm 2 m/s 764 mmHg 18%
    13:00 -1°C° 0 mm 3 m/s 764 mmHg 19%
    14:00 -1°C° 0 mm 3 m/s 763 mmHg 20%
    15:00 -1°C° 0 mm 3 m/s 762 mmHg 21%
    16:00 -1°C° 0 mm 3 m/s 762 mmHg 22%
    17:00 -1°C° 0 mm 3 m/s 761 mmHg 23%
    18:00 -2°C° 0 mm 3 m/s 761 mmHg 24%
    19:00 -3°C° 0 mm 4 m/s 760 mmHg 25%
    20:00 -3°C° 0 mm 4 m/s 759 mmHg 26%
    21:00 -3°C° 0 mm 4 m/s 758 mmHg 27%
    22:00 -3°C° 0 mm 4 m/s 757 mmHg 27%
    23:00 -3°C° 0 mm 4 m/s 757 mmHg 27%

    Après-demain, 18 Novembre, Dimanche

    Heure Température Précipitation Vent Pression Humidité
    00:00 -3°C° 0 mm 4 m/s 756 mmHg 28%
    01:00 -3°C° 0 mm 4 m/s 755 mmHg 29%
    02:00 -3°C° 0 mm 4 m/s 755 mmHg 30%
    03:00 -3°C° 0 mm 4 m/s 754 mmHg 31%
    04:00 -3°C° 0 mm 4 m/s 754 mmHg 36%
    05:00 -3°C° 0 mm 4 m/s 753 mmHg 40%
    06:00 -3°C° 0 mm 4 m/s 752 mmHg 44%
    07:00 -3°C° 0 mm 4 m/s 752 mmHg 47%
    08:00 -3°C° 0 mm 4 m/s 752 mmHg 49%
    09:00 -3°C° 0 mm 4 m/s 751 mmHg 51%
    10:00 -3°C° 0 mm 4 m/s 751 mmHg 51%
    11:00 -2°C° 0 mm 4 m/s 751 mmHg 51%
    12:00 -1°C° 0 mm 3 m/s 751 mmHg 51%
    13:00 -1°C° 0 mm 3 m/s 751 mmHg 52%
    14:00 -1°C° 0 mm 3 m/s 751 mmHg 54%
    15:00 -1°C° 0 mm 3 m/s 750 mmHg 55%
    16:00 -1°C° 0 mm 2 m/s 751 mmHg 57%
    17:00 -1°C° 0 mm 2 m/s 751 mmHg 59%
    18:00 -2°C° 0 mm 2 m/s 751 mmHg 60%
    19:00 -2°C° 0.1 mm 2 m/s 751 mmHg 64%
    20:00 -2°C° 0.1 mm 2 m/s 751 mmHg 67%
    21:00 -2°C° 0.1 mm 2 m/s 751 mmHg 70%
    22:00 -2°C° 0.1 mm 2 m/s 752 mmHg 71%
    23:00 -2°C° 0.1 mm 2 m/s 752 mmHg 72%

    19 Novembre, Lundi

    Heure Température Précipitation Vent Pression Humidité
    00:00 -3°C° 0.1 mm 2 m/s 752 mmHg 73%
    01:00 -1°C° 0.1 mm 1 m/s 752 mmHg 72%
    02:00 -1°C° 0.1 mm 1 m/s 753 mmHg 71%
    03:00 -1°C° 0.1 mm 1 m/s 753 mmHg 70%
    04:00 -1°C° 0.1 mm 1 m/s 753 mmHg 69%
    05:00 -1°C° 0.1 mm 1 m/s 754 mmHg 67%
    06:00 -1°C° 0.1 mm 1 m/s 754 mmHg 65%
    07:00 -3°C° 0 mm 2 m/s 754 mmHg 62%
    08:00 -3°C° 0 mm 2 m/s 755 mmHg 59%
    09:00 -3°C° 0 mm 2 m/s 755 mmHg 56%
    10:00 -3°C° 0 mm 2 m/s 756 mmHg 53%
    11:00 -2°C° 0 mm 2 m/s 756 mmHg 50%
    12:00 -1°C° 0 mm 2 m/s 756 mmHg 46%
    13:00 -2°C° 0 mm 2 m/s 757 mmHg 48%
    14:00 -2°C° 0 mm 2 m/s 757 mmHg 49%
    15:00 -2°C° 0 mm 2 m/s 758 mmHg 51%
    16:00 -2°C° 0 mm 2 m/s 758 mmHg 52%
    17:00 -3°C° 0 mm 2 m/s 758 mmHg 54%
    18:00 -3°C° 0 mm 2 m/s 758 mmHg 56%
    19:00 -3°C° 0 mm 2 m/s 758 mmHg 55%
    20:00 -3°C° 0 mm 2 m/s 759 mmHg 55%
    21:00 -3°C° 0 mm 2 m/s 759 mmHg 55%
    22:00 -3°C° 0 mm 2 m/s 759 mmHg 56%
    23:00 -3°C° 0 mm 2 m/s 760 mmHg 56%

    20 Novembre, Mardi

    Heure Température Précipitation Vent Pression Humidité
    00:00 -3°C° 0 mm 2 m/s 760 mmHg 57%
    01:00 -3°C° 0 mm 2 m/s 760 mmHg 56%
    02:00 -3°C° 0 mm 2 m/s 760 mmHg 56%
    03:00 -4°C° 0 mm 3 m/s 760 mmHg 56%
    04:00 -4°C° 0 mm 3 m/s 760 mmHg 55%
    05:00 -4°C° 0 mm 3 m/s 760 mmHg 54%
    06:00 -4°C° 0 mm 3 m/s 760 mmHg 52%
    07:00 -4°C° 0 mm 3 m/s 760 mmHg 50%
    08:00 -4°C° 0 mm 3 m/s 760 mmHg 48%
    09:00 -4°C° 0 mm 3 m/s 760 mmHg 45%
    10:00 -2°C° 0 mm 3 m/s 759 mmHg 46%
    11:00 -2°C° 0 mm 3 m/s 759 mmHg 47%
    12:00 -1°C° 0 mm 3 m/s 759 mmHg 47%
    13:00 -1°C° 0 mm 3 m/s 759 mmHg 53%
    14:00 -1°C° 0 mm 3 m/s 758 mmHg 58%
    15:00 -1°C° 0 mm 3 m/s 758 mmHg 63%
    16:00 -2°C° 0 mm 3 m/s 757 mmHg 64%
    17:00 -2°C° 0 mm 3 m/s 757 mmHg 65%
    18:00 -2°C° 0 mm 3 m/s 757 mmHg 66%
    19:00 -2°C° 0 mm 3 m/s 757 mmHg 64%
    20:00 -2°C° 0 mm 3 m/s 757 mmHg 62%
    21:00 -2°C° 0 mm 3 m/s 756 mmHg 60%
    22:00 -2°C° 0 mm 3 m/s 756 mmHg 61%
    23:00 -3°C° 0 mm 2 m/s 756 mmHg 61%

    21 Novembre, Mercredi

    Heure Température Précipitation Vent Pression Humidité
    00:00 -3°C° 0 mm 2 m/s 756 mmHg 62%
    01:00 -3°C° 0 mm 2 m/s 756 mmHg 66%
    02:00 -3°C° 0 mm 2 m/s 755 mmHg 69%
    03:00 -3°C° 0 mm 2 m/s 755 mmHg 73%
    04:00 -3°C° 0 mm 2 m/s 755 mmHg 76%
    05:00 -4°C° 0 mm 2 m/s 755 mmHg 80%
    06:00 -2°C° 0 mm 1 m/s 755 mmHg 83%
    07:00 -4°C° 0 mm 2 m/s 755 mmHg 84%
    08:00 -3°C° 0 mm 2 m/s 755 mmHg 84%
    09:00 -3°C° 0 mm 2 m/s 755 mmHg 85%
    10:00 -3°C° 0 mm 2 m/s 755 mmHg 83%
    11:00 -2°C° 0 mm 2 m/s 755 mmHg 80%
    12:00 -2°C° 0 mm 2 m/s 755 mmHg 78%
    13:00 -2°C° 0 mm 2 m/s 755 mmHg 79%
    14:00 -2°C° 0 mm 2 m/s 755 mmHg 79%
    15:00 -2°C° 0 mm 2 m/s 754 mmHg 80%
    16:00 -2°C° 0 mm 2 m/s 755 mmHg 82%
    17:00 -3°C° 0 mm 2 m/s 755 mmHg 84%
    18:00 -3°C° 0 mm 2 m/s 755 mmHg 86%
    19:00 -3°C° 0 mm 2 m/s 755 mmHg 84%
    20:00 -3°C° 0 mm 2 m/s 755 mmHg 83%
    21:00 -3°C° 0 mm 2 m/s 755 mmHg 82%
    22:00 -3°C° 0 mm 2 m/s 755 mmHg 82%
    23:00 -4°C° 0 mm 2 m/s 755 mmHg 81%
    Voir plus